Siloam Springs, AR

12:28 PM CST on November 24, 2017 (GMT -0600)
Smith

Weather History for KSLG - October, 2012

Change the Weather History Date:

Friday, October 26, 2012

  Actual Average Record
Temperature  
Mean Temperature - -  
Max Temperature - 64 °F 82 °F (2014)
Min Temperature - 47 °F 30 °F (2001)
Moisture  
Dew Point -    
Average Humidity    
Maximum Humidity    
Minimum Humidity    
Precipitation  
Precipitation 0.00 in - - ()
Sea Level Pressure  
Sea Level Pressure 30.30 in    
Wind  
Wind Speed 13 mph (NNE)    
Max Wind Speed 20 mph    
Max Gust Speed 25 mph    
Visibility 10 miles    
Events      
Averages and records for this station are not official NWS values.
T = Trace of Precipitation, MM = Missing Value Source: NWS Daily Summary

Daily Weather History Graph

Daily Weather History Graph

Search for Another Location

Airport or City:

Trip Planner

Search our weather history database for the weather conditions in past years. The results will help you decide how hot, cold, wet, or windy it might be!

Date:

Astronomy

Oct. 26, 2012 Rise Set
Actual Time 7:35 AM CDT 6:27 PM CDT
Civil Twilight 7:09 AM CDT 6:54 PM CDT
Nautical Twilight 6:38 AM CDT 7:24 PM CDT
Astronomical Twilight 6:09 AM CDT 7:53 PM CDT
Moon 4:40 PM CDT (10/26) 4:37 AM CDT (10/26)
Length of Visible Light 11h 44m
Length of Day
10h 52m
Waxing Gibbous, 91% of the Moon is Illuminated
Oct 26
Waxing Gibbous
Oct 29
Full
Nov 6
Last Quarter
Nov 13
New
Nov 20
First Quarter

Hourly Weather History & Observations

Time (CDT) Temp. Dew Point Humidity Pressure Visibility Wind Dir Wind Speed Gust Speed Precip Events Conditions
12:15 AM - - N/A% 30.19 in 10.0 mi NNE 10.4 mph - N/A   Overcast
12:35 AM - - N/A% 30.19 in 10.0 mi NNE 12.7 mph 18.4 mph N/A   Overcast
1:15 AM - - N/A% 30.20 in 10.0 mi NNE 12.7 mph - N/A   Overcast
1:55 AM - - N/A% 30.20 in 10.0 mi NE 10.4 mph - N/A   Overcast
2:35 AM - - N/A% 30.21 in 10.0 mi NE 9.2 mph - N/A   Overcast
3:15 AM - - N/A% 30.21 in 10.0 mi NE 12.7 mph 19.6 mph N/A   Overcast
3:35 AM - - N/A% 30.22 in 10.0 mi NNE 16.1 mph 23.0 mph N/A   Overcast
4:35 AM - - N/A% 30.22 in 10.0 mi NNE 15.0 mph 25.3 mph N/A   Overcast
5:15 AM - - N/A% 30.23 in 10.0 mi NNE 16.1 mph 20.7 mph N/A   Overcast
6:15 AM - - N/A% 30.25 in 10.0 mi NNE 11.5 mph 18.4 mph N/A   Overcast
6:35 AM - - N/A% 30.26 in 10.0 mi NNE 15.0 mph - N/A   Overcast
6:55 AM - - N/A% 30.26 in 10.0 mi NNE 12.7 mph - N/A   Overcast
7:15 AM - - N/A% 30.27 in 10.0 mi NNE 15.0 mph 19.6 mph N/A   Overcast
7:56 AM - - N/A% 30.28 in 10.0 mi NNE 12.7 mph 18.4 mph N/A   Overcast
8:55 AM - - N/A% 30.31 in 10.0 mi NE 13.8 mph 23.0 mph N/A   Overcast
8:56 AM - - N/A% 30.31 in 10.0 mi NE 12.7 mph 23.0 mph N/A   Overcast
9:35 AM - - N/A% 30.33 in 10.0 mi NE 12.7 mph 23.0 mph N/A   Mostly Cloudy
10:15 AM - - N/A% 30.34 in 10.0 mi NNE 16.1 mph 20.7 mph N/A   Mostly Cloudy
10:35 AM - - N/A% 30.35 in 10.0 mi North 16.1 mph 24.2 mph N/A   Mostly Cloudy
11:35 AM - - N/A% 30.35 in 10.0 mi NNE 16.1 mph 21.9 mph N/A   Scattered Clouds
11:55 AM - - N/A% 30.35 in 10.0 mi NE 12.7 mph - N/A   Mostly Cloudy
12:15 PM - - N/A% 30.35 in 10.0 mi NE 15.0 mph 21.9 mph N/A   Mostly Cloudy
12:35 PM - - N/A% 30.36 in 10.0 mi NNE 15.0 mph 24.2 mph N/A   Mostly Cloudy
12:55 PM - - N/A% 30.34 in 10.0 mi NNE 12.7 mph 20.7 mph N/A   Mostly Cloudy
1:15 PM - - N/A% 30.34 in 10.0 mi NNE 17.3 mph 23.0 mph N/A   Scattered Clouds
1:35 PM - - N/A% 30.34 in 10.0 mi North 18.4 mph 23.0 mph N/A   Mostly Cloudy
1:36 PM - - N/A% 30.34 in 10.0 mi North 17.3 mph 23.0 mph N/A   Mostly Cloudy
1:55 PM - - N/A% 30.33 in 10.0 mi North 16.1 mph 19.6 mph N/A   Scattered Clouds
2:15 PM - - N/A% 30.32 in 10.0 mi North 16.1 mph 21.9 mph N/A   Partly Cloudy
2:55 PM - - N/A% 30.31 in 10.0 mi North 18.4 mph 24.2 mph N/A   Partly Cloudy
3:15 PM - - N/A% 30.31 in 10.0 mi North 18.4 mph 23.0 mph N/A   Partly Cloudy
3:35 PM - - N/A% 30.31 in 10.0 mi North 18.4 mph - N/A   Partly Cloudy
3:56 PM - - N/A% 30.31 in 10.0 mi North 19.6 mph - N/A   Partly Cloudy
4:15 PM - - N/A% 30.31 in 10.0 mi NNE 13.8 mph 18.4 mph N/A   Clear
4:35 PM - - N/A% 30.30 in 10.0 mi NNE 13.8 mph - N/A   Clear
5:15 PM - - N/A% 30.30 in 10.0 mi NNE 13.8 mph 18.4 mph N/A   Clear
5:35 PM - - N/A% 30.30 in 10.0 mi NNE 11.5 mph 18.4 mph N/A   Clear
5:55 PM - - N/A% 30.30 in 10.0 mi NNE 12.7 mph - N/A   Clear
6:15 PM - - N/A% 30.30 in 10.0 mi NNE 9.2 mph - N/A   Clear
6:35 PM - - N/A% 30.31 in 10.0 mi North 9.2 mph - N/A   Clear
6:55 PM - - N/A% 30.32 in 10.0 mi North 9.2 mph - N/A   Clear
7:15 PM - - N/A% 30.32 in 10.0 mi North 6.9 mph - N/A   Clear
7:35 PM - - N/A% 30.32 in 10.0 mi North 8.1 mph - N/A   Clear
7:55 PM - - N/A% 30.33 in 10.0 mi North 9.2 mph - N/A   Clear
8:15 PM - - N/A% 30.33 in 10.0 mi North 11.5 mph - N/A   Clear
8:35 PM - - N/A% 30.33 in 10.0 mi North 9.2 mph - N/A   Clear
8:55 PM - - N/A% 30.33 in 10.0 mi North 8.1 mph - N/A   Clear
9:16 PM - - N/A% 30.34 in 10.0 mi North 9.2 mph - N/A   Clear
9:35 PM - - N/A% 30.34 in 10.0 mi NNE 9.2 mph - N/A   Clear
10:35 PM - - N/A% 30.35 in 10.0 mi North 6.9 mph - N/A   Clear
10:55 PM - - N/A% 30.35 in 10.0 mi North 6.9 mph - N/A   Clear
11:35 PM - - N/A% 30.35 in 10.0 mi North 4.6 mph - N/A   Clear
11:55 PM - - N/A% 30.34 in 10.0 mi North 4.6 mph - N/A   Clear